Longue-Pointe-de-Mingan, Quebec

12:17 AM EDT on August 19, 2017 (GMT -0400)
Longue-Pointe-de-Mingan

Weather History for CWBT - April, 2013

Change the Weather History Date:

Wednesday, April 17, 2013

  Actual Average (CYGV) Record (CYGV)
Temperature  
Mean Temperature 40 °F -  
Max Temperature 50 °F 37 °F 53 °F (2006)
Min Temperature 31 °F 23 °F 0 °F (2003)
Degree Days  
Heating Degree Days 24    
Moisture  
Dew Point 28 °F    
Average Humidity 68    
Maximum Humidity 100    
Minimum Humidity 24    
Precipitation  
Precipitation 0.04 in - - ()
Sea Level Pressure  
Sea Level Pressure 29.71 in    
Wind  
Wind Speed 8 mph ()    
Max Wind Speed 17 mph    
Max Gust Speed 33 mph    
Averages and records for this station are not official NWS values.
T = Trace of Precipitation, MM = Missing Value Source: Averaged Metar Reports

Daily Weather History Graph

Daily Weather History Graph

Search for Another Location

Airport or City:

Trip Planner

Search our weather history database for the weather conditions in past years. The results will help you decide how hot, cold, wet, or windy it might be!

Date:

Astronomy

Apr. 17, 2013 Rise Set
Actual Time 5:18 AM EDT 7:14 PM EDT
Civil Twilight 4:44 AM EDT 7:49 PM EDT
Nautical Twilight 4:01 AM EDT 8:32 PM EDT
Astronomical Twilight 3:13 AM EDT 9:21 PM EDT
Moon 10:16 AM EDT (4/17) 1:02 AM EDT (4/17)
Length of Visible Light 15h 05m
Length of Day
13h 55m
Waxing Crescent, 42% of the Moon is Illuminated
Apr 17
Waxing Crescent
Apr 18
First Quarter
Apr 25
Full
May 2
Last Quarter
May 9
New

Hourly Weather History & Observations

Time (EDT) Temp. Windchill Dew Point Humidity Pressure Visibility Wind Dir Wind Speed Gust Speed Precip Events Conditions
12:00 AM 36.3 °F - 36.3 °F 100% 29.52 in - SSW 2.3 mph - 0.09 in   Unknown
1:00 AM 36.0 °F 32.1 °F 36.0 °F 100% 29.48 in - SSW 4.6 mph - 0.08 in   Unknown
2:00 AM 36 °F - 36 °F 98% 29.44 in - SW 4.6 mph - -  
2:00 AM 35.6 °F 31.7 °F 35.6 °F 100% 29.44 in - SW 4.6 mph - N/A   Unknown
3:00 AM 35.4 °F 30.5 °F 35.4 °F 100% 29.43 in - SW 5.8 mph - 0.04 in   Unknown
4:00 AM 35.6 °F 28.6 °F 35.6 °F 100% 29.41 in - WSW 9.2 mph 17.3 mph N/A   Unknown
5:00 AM 36.0 °F 28.5 °F 36.0 °F 100% 29.43 in - West 10.4 mph 21.9 mph N/A   Unknown
6:00 AM 34.9 °F 27.1 °F 34.9 °F 100% 29.44 in - West 10.4 mph 17.3 mph N/A   Unknown
7:00 AM 35.6 °F 28.0 °F 35.6 °F 100% 29.47 in - West 10.4 mph 19.6 mph N/A   Unknown
8:00 AM 38 °F - 37 °F 93% 29.50 in - West 11.5 mph - -  
8:00 AM 37.9 °F 30.5 °F 36.7 °F 95% 29.50 in - West 11.5 mph 23.0 mph N/A   Unknown
9:00 AM 38.5 °F 29.9 °F 36.3 °F 92% 29.52 in - West 15.0 mph 29.9 mph 0.04 in   Unknown
10:00 AM 40.6 °F 34.8 °F 37.8 °F 89% 29.57 in - West 9.2 mph 18.4 mph N/A   Unknown
11:00 AM 48.6 °F - 35.1 °F 60% 29.61 in - WNW 11.5 mph 20.7 mph N/A   Unknown
12:00 PM 48.0 °F - 28.6 °F 47% 29.65 in - NW 16.1 mph 28.8 mph N/A   Unknown
1:00 PM 45.7 °F 39.1 °F 26.4 °F 47% 29.71 in - NW 15.0 mph 31.1 mph N/A   Unknown
2:00 PM 47 °F - 22 °F 24% 29.76 in - NW 17.3 mph - -  
2:00 PM 47.1 °F - 22.1 °F 37% 29.76 in - NW 17.3 mph 33.4 mph N/A   Unknown
3:00 PM 46.2 °F 40.5 °F 23.2 °F 40% 29.81 in - NW 12.7 mph 31.1 mph N/A   Unknown
5:00 PM 42.4 °F 35.7 °F 19.4 °F 40% 29.91 in - NNW 12.7 mph 27.6 mph N/A   Unknown
6:00 PM 41.2 °F 34.5 °F 18.7 °F 40% 29.96 in - NW 11.5 mph 20.7 mph N/A   Unknown
7:00 PM 37.8 °F 31.8 °F 16.7 °F 42% 30.04 in - NW 8.1 mph - N/A   Unknown
8:00 PM 36 °F - 15 °F 28% 30.10 in - NW 3.5 mph - -  
8:00 PM 35.6 °F 32.8 °F 14.9 °F 43% 30.10 in - NW 3.5 mph - N/A   Unknown
9:00 PM 34.5 °F 26.2 °F 13.1 °F 41% 30.15 in - NW 11.5 mph 24.2 mph N/A   Unknown
10:00 PM 31.5 °F 23.5 °F 10.9 °F 43% 30.19 in - NW 9.2 mph 17.3 mph N/A   Unknown
11:00 PM 31.5 °F 24.9 °F 12.6 °F 46% 30.21 in - NNW 6.9 mph - N/A   Unknown